Welcome to the New NWS' Forecast!
Most changes are behind the scenes, but click here for differences you might notice.
Latest weather observations around

Frenchville, Northern Aroostook Regional Airport (KFVE)

Using English Units (Switch to International System of Units)
Date/ Time (EDT) Wind (mph) Vis. (mi) Weather Sky Cond. Temp (°F) Rel. Humidity Wind Chill (°F) Heat Index (°F) Pressure Precip. (in)
Air Dwpt 6 hour Altimeter (inHg) Sea level (inHg) 1 hr 3 hr 6 hr
Max Min
Oct 18 00:53 W 14 10 Clear CLR 33 23     66% 23   29.62 29.64      
Oct 17 23:53 WNW 15 10 Mostly Cloudy FEW028 BKN034 BKN110 35 26     69% 26   29.6 29.62      
Oct 17 22:53   10 Cloudy BKN031 OVC110 36 28     73%     29.6 29.61   0  
Oct 17 21:53 WNW 10 10 Clear   36 31     82% 29   29.59 29.61      
Oct 17 20:53 WNW 8 10 Cloudy FEW003 FEW060 OVC090 36 32     85% 30   29.58 29.59 0    
Oct 17 20:00 W 9 10 Light Rain FEW009 BKN042 OVC065 37 32     82% 30   29.57   0    
Oct 17 19:53 W 10 10 Light Rain FEW020 BKN038 OVC065 37 32     82% 30   29.58 29.6 0   0
Oct 17 18:53 W 10 10 Cloudy FEW018 BKN030 OVC080 37 31     78% 30   29.56 29.58 0    
Oct 17 18:49 WNW 9 10 Unknown Precipitation SCT016 BKN030 OVC080 37 30     75% 31   29.56   0    
Oct 17 18:41 NW 10 9 Light Snow BKN016 BKN047 OVC080 36 31     82% 29   29.56   0    
Oct 17 18:33 NW 9 3 Light Snow OVC014 36 31     82% 29   29.57   0    
Oct 17 18:30 NNW 9 1.75 Light Snow OVC011 36 31     82% 29   29.56   0    
Oct 17 18:21 NW 14 1.25 Light Snow BKN011 OVC017 36 31     82% 27   29.57   0    
Oct 17 18:18 WNW 14 1.75 Light Snow OVC013 36 31     82% 27   29.57   0    
Oct 17 18:08 NW 13 5 Light Snow BKN013 OVC018 37 32     82% 29   29.56   0    
Oct 17 17:57 NNW 14 8 Light Rain FEW009 BKN018 OVC065 39 33     79% 31   29.55   0    
Oct 17 17:53 NW 11 7 Light Rain SCT018 BKN026 OVC065 40 33     76% 33   29.55 29.57 0    
Oct 17 17:51 NW 11 7 Light Rain SCT018 BKN026 OVC065 39 34     81% 32   29.55   0    
Oct 17 16:53 W 9 10 Cloudy FEW065 BKN080 OVC100 44 35     70% 39   29.52 29.53 0 0  
Oct 17 16:39 W 9 10 Mostly Cloudy SCT017 BKN070 44 36     73% 39   29.51   0    
Oct 17 16:01 W 13 10 Cloudy BKN019 OVC035 45 37     74% 39   29.51        
Oct 17 15:53 W 10 10 Cloudy FEW013 SCT019 OVC037 45 37     74% 40   29.51 29.52      
Oct 17 15:32 WSW 11 10 Cloudy SCT015 BKN022 OVC075 44 37     76% 38   29.51        
Oct 17 14:53 SW 8 10 Cloudy FEW009 SCT017 OVC060 43 38     82% 38   29.51 29.52 0    
Oct 17 14:48 SW 8 10 Light Rain SCT010 BKN044 OVC060 43 37     81% 38   29.51   0    
Oct 17 14:28 WSW 10 3 Light Rain SCT008 OVC014 42 37     82% 36   29.52   0    
Oct 17 14:25 WSW 9 1.75 Light Rain SCT008 OVC014 42 36     79% 37   29.52   0    
Oct 17 14:22 WSW 11 1.5 Heavy Rain FEW008 OVC015 42 36     79% 36   29.52   0    
Oct 17 14:17 W 17 1.5 Heavy Rain BKN014 OVC022 42 37     82% 34   29.52   0    
Oct 17 14:12 W 11 2 Heavy Rain BKN014 OVC022 42 36     79% 36   29.52   0    
Oct 17 14:00 W 8 1.75 Rain SCT018 OVC024 44 37     76% 40   29.51   0    
Oct 17 13:53 SW 8 3 Rain OVC024 44 36     73% 40   29.51 29.52 0   0
Oct 17 12:53 S 9 10 Cloudy OVC027 44 35     70% 39   29.53 29.54 0    
Oct 17 12:45 S 9 10 Light Rain BKN027 OVC032 44 35     70% 39   29.53   0    
Oct 17 11:53 S 11 10 Light Rain BKN034 BKN042 OVC050 45 34     65% 39   29.56 29.57 0    
Oct 17 10:53 S 10 10 Mostly Cloudy FEW038 SCT060 BKN100 43 32     65% 37   29.59 29.61      
Oct 17 09:53 S 10 10 Cloudy BKN036 BKN047 OVC065 42 32     67% 36   29.62 29.64      
Oct 17 08:53 S 8 10 Cloudy FEW029 OVC090 40 31     70% 34   29.64 29.66      
Oct 17 08:35 S 7 10 Mostly Cloudy BKN029 40 32     73% 35   29.65        
Oct 17 07:53 Calm 10 Mostly Cloudy BKN030 38 31     76%     29.66 29.68      
Oct 17 06:53 S 8 10 Cloudy OVC100 36 29     75% 30   29.67 29.69      
Oct 17 05:53 S 8 10 Cloudy OVC100 36 29     75% 30   29.7 29.72      
Oct 17 04:53 S 8 10 Mostly Cloudy BKN110 35 28     75% 29   29.72 29.74      
Oct 17 03:53 S 6 10 Cloudy OVC065 35 26     69% 30   29.72 29.74      
Oct 17 02:53 S 8 10 Cloudy OVC041 34 25     69% 27   29.74 29.76      
Oct 17 01:53 SSW 9 10 Cloudy FEW029 OVC075 35 25     66% 28   29.76 29.78      
Oct 16 23:53 W 5 10 Mostly Cloudy BKN041 35 24     64% 31   29.79 29.8      
Oct 16 22:53 WSW 7 10 Mostly Cloudy BKN055 35 23     61% 29   29.79 29.8      
Oct 16 21:53 W 8 10 Clear CLR 36 23     59% 30   29.79 29.81      
Oct 16 20:53 W 10 10 Cloudy OVC040 39 25     57% 32   29.78 29.8      
Oct 16 19:53 W 11 10 Clear   39 25     57% 32   29.77 29.78     0
Oct 16 18:53 W 14 10 Mostly Cloudy BKN041 40 25     55% 32   29.76 29.78      
Oct 16 17:53 W 16 10 Cloudy OVC044 41 24     51% 33   29.74 29.76      
Oct 16 16:53 W 17 10 Cloudy OVC042 42 25     50% 34   29.72 29.73   0  
Oct 16 15:53 WNW 17 10 Mostly Cloudy BKN047 45 24     44% 38   29.7 29.71      
Oct 16 14:53 WNW 23 10 Clear and Windy CLR 46 23     40% 38   29.68 29.69 0    
Oct 16 13:53 WNW 20 10 Mostly Clear and Windy FEW047 47 24     40% 40   29.65 29.65     0
Oct 16 12:53 WNW 15 10 Cloudy OVC038 46 28     49% 40   29.64 29.64 0    
Oct 16 11:53   10 Light Rain OVC035 45        %     29.61 29.62 0    
Oct 16 10:53 WNW 24 10 Light Rain BKN035 45        % 36   29.57 29.57 0 0  
Oct 16 09:53 WNW 22 10 Cloudy and Windy OVC031 42        % 33   29.54 29.55 0    
Oct 16 08:53 W 17 10 Light Rain FEW017 BKN037 OVC055 40        % 31   29.48 29.49 0    
Oct 16 08:45 W 18 10 Light Rain FEW017 BKN039 OVC049 40        % 31   29.47   0    
Oct 16 07:53 W 17 10 Cloudy BKN023 OVC030 39        % 30   29.42 29.43 0   0
Oct 16 06:53 W 18 10 Light Rain BKN019 OVC027 38        % 28   29.37 29.38 0    
Oct 16 06:05 W 23 10 Light Rain SCT022 BKN029 OVC037 40        % 30   29.36   0    
Oct 16 05:53 WSW 15 10 Mostly Cloudy SCT029 BKN037 BKN044 41        % 33   29.35 29.36      
Oct 16 04:53 WSW 21 10 Mostly Clear and Windy FEW033 41        % 32   29.35 29.36 0 0  
Oct 16 03:53 WSW 18 10 Mostly Cloudy SCT037 BKN044 44        % 36   29.38 29.38 0    
Oct 16 02:53 WSW 23 10 Light Rain SCT045 47        % 39   29.35 29.35 0    
Oct 16 01:53   10 Mostly Cloudy SCT029 BKN039 BKN080 51        %     29.38 29.38     0
Oct 16 01:06 WSW 14 10 Mostly Clear FEW024 53        %     29.39        
Oct 16 00:53 WSW 15 10 Mostly Cloudy BKN020 BKN027 53        %     29.39 29.39      
Oct 16 00:26 SSW 10 10 Cloudy FEW003 BKN019 OVC028 53        %     29.39        
Oct 15 23:53 S 11 3 Fog/Mist OVC002 53        %     29.4 29.4 0    
Oct 15 23:47 S 10 1.75 Fog/Mist OVC002 52        %     29.41   0    
Oct 15 23:41 S 13 1 Light Rain and Fog/Mist VV002 52        %     29.41   0    
Oct 15 23:26 S 14 1.5 Fog/Mist OVC003 52        %     29.42   0    
Oct 15 23:19 S 13 1.75 Light Rain and Fog/Mist OVC002 52        %     29.42   0    
Oct 15 23:03 SSW 11 7 Light Rain OVC002 52        %     29.44   0    
Oct 15 22:53 S 15 2 Light Rain and Fog/Mist OVC002 52        %     29.44 29.44 0 0  
Oct 15 22:49 S 13 1.75 Light Rain and Fog/Mist OVC002 52        %     29.44   0    
Oct 15 22:43 S 14 1.25 Light Rain and Fog/Mist OVC002 51        %     29.45   0    
Oct 15 21:53 S 17 0.75 Light Rain and Fog/Mist VV002 51        %     29.48 29.49 0    
Oct 15 21:32 S 15 1.25 Light Rain and Fog/Mist OVC002 50        %     29.5   0    
Oct 15 21:29 S 16 1.75 Light Rain and Fog/Mist OVC002 50        %     29.5   0    
Oct 15 20:53 SSE 13 10 Light Rain OVC003 49        % 44   29.53 29.54 0    
Oct 15 20:39 S 14 5 Light Rain and Fog/Mist OVC003 49        % 44   29.54   0    
Oct 15 20:17 SSE 15 2 Light Rain and Fog/Mist OVC003 49        % 43   29.57   0    
Oct 15 19:53 SSE 18 3 Rain and Fog/Mist OVC003 49        % 43   29.59 29.6 0   0
Oct 15 19:41 SSE 16 3 Light Rain and Fog/Mist OVC003 48        % 42   29.6   0    
Oct 15 19:21 SSE 16 2.5 Light Rain and Fog/Mist OVC003 48        % 42   29.62   0    
Oct 15 18:53 SSE 18 4 Light Rain and Fog/Mist OVC002 48        % 41   29.65 29.66 0    
Oct 15 18:34 SSE 15 2.5 Light Rain and Fog/Mist BKN002 OVC007 47        % 41   29.67   0    
Oct 15 18:25 SSE 15 3 Light Rain and Fog/Mist BKN005 OVC009 47        % 41   29.69   0    
Oct 15 18:08 SE 16 4 Light Rain BKN007 BKN012 OVC016 47        % 40   29.7   0    
Oct 15 18:00 SE 14 6 Light Rain SCT009 BKN012 OVC018 47        % 41   29.71   0    
Oct 15 17:53   9 Light Rain SCT012 OVC018 47        %     29.72 29.73 0    
Oct 15 17:15 SSE 11 5 Light Rain BKN025 OVC033 47        % 42   29.77   0    
Oct 15 16:53 S 14 7 Light Rain OVC033 48        % 42   29.8 29.81 0 0  
Oct 15 15:53 SSE 14 10 Cloudy SCT055 BKN070 OVC100 53        %     29.83 29.84      
Oct 15 14:53 S 15 10 Mostly Cloudy BKN120 53        %     29.88 29.88      
Oct 15 13:53 S 15 10 Mostly Clear FEW044 57        %     29.9 29.9      
Oct 15 12:53 S 15 10 Mostly Clear FEW042 56        %     29.95 29.95      
Oct 15 11:53 SE 11 10 Clear CLR 52        %     30 30.02      
Oct 15 10:53 ESE 8 10 Cloudy FEW075 OVC090 48        % 44   30.05 30.06      
Oct 15 09:53 SSE 6 10 Cloudy BKN075 OVC090 46        % 43   30.07 30.09      
Oct 15 08:53 S 7 10 Mostly Clear FEW120 43        % 39   30.08 30.09      
Oct 15 07:53 ESE 3 10 Mostly Clear FEW120 39        % 37   30.08 30.09      
Notice The following observation data may not be complete
Oct 15 06:53 S 7 10 Cloudy OVC120          %     30.09 30.1      
Oct 15 05:53 S 5 10 Clear CLR 38        % 34   30.08 30.1      
Notice The following observation data may not be complete
Oct 15 04:53 NW 6 10 Cloudy OVC075          %     30.07 30.09      
Notice The following observation data may not be complete
Oct 15 03:53 WNW 7 10 Cloudy OVC075          %     30.07 30.08      
Notice The following observation data may not be complete
Oct 15 02:53 W 9 10 Cloudy OVC085          %     30.07 30.09      
Oct 15 01:53 W 10 10 Clear CLR 40        % 33   30.08 30.09      
Notice The following observation data may not be complete
Oct 15 00:53 W 9 10 Clear            %     30.06 30.08      
Oct 14 23:53 WSW 8 10 Clear CLR 39        % 33   30.07 30.09      
Oct 14 22:53 WSW 10 10 Clear CLR 39        % 32   30.06 30.08      
Oct 14 21:53 WSW 9 10 Clear CLR 40        % 34   30.05 30.07      
Oct 14 20:53 WSW 7 10 Mostly Clear FEW065 40        % 35   30.04 30.06      
Oct 14 19:53 WSW 8 10 Clear CLR 41        % 36   30.03 30.05      
Oct 14 18:53 WSW 7 10 Clear CLR 42        % 38   30.03 30.05      
Oct 14 17:53 W 11 10 Clear CLR 44        % 38   30.02 30.04      
Oct 14 16:53 W 15 10 Clear CLR 47 25     42% 41   30 30.02      
Oct 14 15:53 W 17 10 Mostly Clear FEW050 48 25     40% 42   29.99 30.01      
Oct 14 14:53 WNW 14 10 Clear CLR 47 24     40% 41   29.98 29.99      
Oct 14 13:53 WNW 11 10 Clear CLR 47 25     42% 42   29.96 29.97      
Oct 14 12:53 W 20 10 Partly Cloudy and Windy SCT043 45 24     44% 37   29.97 29.99      
Oct 14 11:53 W 17 10 Partly Cloudy SCT037 43 24     47% 35   29.98 30      
Oct 14 10:53 WNW 16 10 Cloudy OVC031 39 24     55% 30   29.98 30      
Oct 14 09:53 W 15 10 Cloudy SCT029 OVC037 38 25     59% 29   29.97 29.99      
Oct 14 08:53 WSW 8 10 Cloudy OVC040 36 26     67% 30   29.96 29.98      
Oct 14 07:53 WSW 7 10 Cloudy OVC038 35 27     72% 29   29.94 29.96      
Oct 14 06:53 WSW 6 10 Cloudy OVC038 35 28     75% 30   29.92 29.94      
Oct 14 05:53 W 7 10 Cloudy OVC040 35 27     72% 29   29.9 29.92      
Oct 14 04:53 WNW 9 10 Cloudy OVC033 35 27     72% 28   29.88 29.9      
Oct 14 03:53 WNW 6 10 Cloudy OVC039 36 26     67% 31   29.86 29.88      
Oct 14 02:53 WNW 9 10 Cloudy OVC033 36 26     67% 29   29.85 29.87      
Oct 14 01:53 WNW 9 10 Cloudy BKN039 OVC047 36 27     70% 29   29.84 29.85 0   0
Oct 14 00:53 WNW 8 10 Cloudy SCT037 OVC050 36 27     70% 30   29.82 29.84 0    
Oct 13 23:53 NW 6 10 Cloudy OVC038 36 25     64% 31   29.81 29.83      
Oct 13 22:53 WNW 7 10 Cloudy BKN065 OVC110 35 25     66% 29   29.79 29.8      
Oct 13 21:53 WNW 6 10 Clear CLR 36 24     62% 31   29.78 29.8      
Oct 13 20:53 W 8 10 Clear CLR 36 25     64% 30   29.76 29.78      
Oct 13 19:53 W 10 10 Cloudy OVC055 39 26     59% 32   29.74 29.76      
Oct 13 18:53 W 7 10 Cloudy OVC055 39 26     59% 34   29.73 29.75      
Oct 13 17:53 W 9 10 Cloudy OVC055 39 27     62% 33   29.71 29.72      
Oct 13 16:53 W 7 10 Cloudy OVC042 40 27     60% 35   29.69 29.71      
Oct 13 15:53 WNW 9 10 Cloudy SCT040 OVC049 40 27     60% 34   29.68 29.7      
Oct 13 14:53 NW 9 10 Cloudy SCT033 OVC045 41 27     57% 35   29.68 29.69      
Oct 13 13:53 W 11 10 Cloudy OVC034 41 27     57% 34   29.67 29.69      
Oct 13 12:53 W 10 10 Cloudy OVC042 41 25     53% 35   29.67 29.68      
Oct 13 11:53 W 10 10 Cloudy BKN043 OVC050 42 25     50% 36   29.66 29.68      
Oct 13 10:53 W 14 10 Cloudy FEW029 OVC049 42 28     57% 35   29.67 29.68      
Oct 13 09:53 W 9 10 Partly Cloudy SCT046 42 32     67% 37   29.65 29.67      
Oct 13 05:53 W 7 10 Mostly Clear FEW046 37 32     82% 32   29.6 29.61      
Oct 13 00:53 WNW 6 10 Cloudy OVC050 39 33     79% 35   29.55 29.56      
Oct 12 19:00 NNW 16 6 Light Rain FEW012 BKN018 OVC044 44 38     79% 37   29.46   0    
Oct 12 18:51 NW 14 6 Rain FEW010 BKN025 OVC044 45 39     81% 38   29.46   0    
Oct 12 08:53 Calm 0.25 Fog VV003 42 38     85%     29.48 29.49      
Oct 12 07:53 Calm 0.25 Fog VV003 41 38     89%     29.49 29.51 0   0
Notice The following observation data may not be complete
Oct 12 00:30   0.5 Fog VV004          %              
Notice The following observation data may not be complete
Oct 11 23:26   1.75 Fog/Mist OVC004          %              
Oct 11 23:17 ESE 7 3 Fog/Mist OVC004 40 37     89% 35   29.64        
Notice The following observation data may not be complete
Oct 11 22:28   3 Fog/Mist OVC004          %         0    
Oct 11 18:13 E 10 2.5 Fog/Mist OVC005 39 35     86% 32   29.77        
Oct 11 17:53 ESE 13 3 Fog/Mist BKN005 OVC010 39 35     86% 31   29.77 29.79 0    
Oct 11 17:42 ESE 13 2.5 Fog/Mist BKN005 OVC010 39 35     86% 31   29.77   0    
Oct 11 17:31 E 14 4 Fog/Mist BKN006 OVC010 39 35     86% 31   29.78   0    
Oct 11 16:32 ESE 11 2 Light Rain and Fog/Mist BKN005 OVC010 39 35     86% 32   29.81   0    
Oct 11 14:32 ESE 14 1.75 Heavy Rain BKN006 OVC012 39 34     82% 31   29.85   0    
Oct 11 13:22 ESE 14 1.5 Heavy Rain and Fog/Mist BKN006 OVC010 38 34     85% 30   29.88   0    
Notice The following observation data may not be complete
Oct 11 12:33   3 Light Rain OVC008          %         0    
Oct 11 10:53 ESE 7 3 Rain and Fog/Mist BKN007 OVC012 37 33     85% 32   29.97 29.99 0 0  
Notice The following observation data may not be complete
Oct 11 09:01   5 Light Rain and Fog/Mist OVC006          %         0    
Oct 11 08:53 ESE 11 5 Light Rain and Fog/Mist OVC005 37 33     85% 29   29.99 30.01 0    
Oct 11 08:18 E 11 3 Light Rain and Fog/Mist OVC005 38 34     85% 30   29.99   0    
Notice The following observation data may not be complete
May 15 07:53 SSW 6 10 Clear CLR   41      %     29.69 29.68      
May 15 04:53 SSE 9 10 Partly Cloudy SCT110 51 38     61%     29.69 29.68      
Notice The following observation data may not be complete
May 14 23:53 Calm 10 Clear CLR   35      %     29.77 29.75      
May 14 16:53 W 18 10 Partly Cloudy SCT120 78 37     23%   77 29.66 29.65      
May 14 13:53 WSW 16 10 Mostly Clear FEW085 76 36     23%   74 29.68 29.67      
May 14 12:53 SW 20 10 Clear and Windy CLR 76 37     24%   74 29.69 29.68      
May 12 12:53 WSW 11 10 Clear CLR 54 17     23%     30.04 30.06      
May 12 09:53 W 10 10 Clear CLR 45 18     34% 40   30.12 30.14      
May 12 08:53 WSW 10 10 Clear CLR 42 18     37% 36   30.12 30.14      
May 12 07:53 W 8 10 Clear CLR 38 19     46% 32   30.13 30.15      
May 11 18:53 NW 20 10 Clear and Windy CLR 42 14     32% 33   29.98 29.99      
May 11 15:53 NW 22 10 Clear and Windy CLR 45 17     32% 37   29.91 29.92      
May 11 13:53   10 Clear CLR 45 17     32%     29.88 29.89 0   0
Jun 10 18:53 WSW 7 10 Clear CLR 68 31     25%     29.82 29.81      
Jun 10 09:53   10 Clear CLR 56 37     49%     29.87 29.86